Location: Caltech
(34.1382°N, 118.1253°W)
Time: 21:29:11
(UTC-08:00)

OAO 2 Rocket - Visible Passes

Search period start: 30 January 2015 00:00
Search period end: 09 February 2015 00:00
Orbit: 678 x 748 km, 35.0° (Epoch: 29 January)

Date Brightness Start Highest point End Pass type
(mag) Time Alt. Az. Time Alt. Az. Time Alt. Az.
30 Jan 6.3 06:03:27 10° SSE 06:04:41 11° SE 06:06:08 10° SE visible
01 Feb 5.6 05:51:08 10° SSW 05:54:40 20° SSE 05:58:17 10° ESE visible
02 Feb 5.9 04:55:24 10° S 04:57:35 13° SSE 04:59:56 10° ESE visible
03 Feb 4.8 05:40:19 10° SW 05:44:41 33° SSE 05:49:07 10° E visible
04 Feb 5.2 04:45:28 17° S 04:47:35 23° SSE 04:51:28 10° E visible
05 Feb 5.9 03:51:52 14° SE 03:51:52 14° SE 03:53:27 10° ESE visible
05 Feb 3.9 05:30:54 15° SW 05:34:48 51° SSE 05:39:34 10° E visible
06 Feb 4.2 04:37:10 36° SSE 04:37:37 37° SSE 04:42:10 10° E visible
06 Feb 3.3 06:17:17 10° WSW 06:22:13 87° S 06:27:09 10° E visible
07 Feb 5.9 03:43:19 16° ESE 03:43:19 16° ESE 03:44:37 10° E visible
07 Feb 3.3 05:22:19 27° WSW 05:24:58 73° SSE 05:29:52 10° E visible
08 Feb 3.8 04:28:22 53° SE 04:28:22 53° SE 04:32:35 10° E visible
08 Feb 3.3 06:07:32 10° W 06:12:29 82° N 06:17:25 10° E visible
